{"data":{"norad_id":57779,"intl_designator":"2023-134J","name":"STARLINK-30359","alt_names":[],"object_type":"PAYLOAD","status":"ACTIVE","operator":null,"country":"US","launch_date":"2023-09-04","launch_site_code":"AFETR","launch_vehicle":null,"mission":null,"orbit_class":"UNKNOWN","rcs_meters":null,"size_class":null,"mass_kg":null,"dimensions":null,"purposes":["comms"],"wikipedia_slug":null,"has_3d_model":false,"image_url":null,"decayed_at":null,"tle_current":{"epoch":"2026-05-24T23:06:58.784832Z","epoch_age_seconds":81272,"freshness":"FRESH","line1":"1 57779U 23134J   26144.96318038  .00001149  00000+0  51294-4 0  9992","line2":"2 57779  43.0034 112.4708 0001146 265.8047  94.2673 15.27569891151302","mean_motion":15.27569891,"eccentricity":0.0001146,"inclination_deg":43.0034,"raan_deg":112.4708,"arg_perigee_deg":265.8047,"mean_anomaly_deg":94.2673,"bstar":5.1294e-5,"rev_number":15130,"period_min":94.26737254276,"perigee_km":482.29307079371,"apogee_km":483.86566158484,"semimajor_km":6861.2163661893,"source":"CELESTRAK","updated_at":"2026-05-25T13:38:18.405416Z"}}}